TimeCDT,TemperatureF,Dew PointF,Humidity,Sea Level PressureIn,VisibilityMPH,Wind Direction,Wind SpeedMPH,Gust SpeedMPH,PrecipitationIn,Events,Conditions,WindDirDegrees,DateUTC
12:54 AM,54.0,43.0,66,29.98,10.0,North,4.6,-,N/A,,Clear,350,2013-09-21 05:54:00
1:54 AM,52.0,44.1,74,29.99,10.0,West,3.5,-,N/A,,Clear,270,2013-09-21 06:54:00
2:54 AM,50.0,44.1,80,29.98,10.0,WNW,3.5,-,N/A,,Clear,300,2013-09-21 07:54:00
3:54 AM,50.0,44.1,80,29.98,10.0,West,4.6,-,N/A,,Clear,280,2013-09-21 08:54:00
4:54 AM,48.0,43.0,83,29.98,10.0,WNW,4.6,-,N/A,,Clear,300,2013-09-21 09:54:00
5:54 AM,48.9,43.0,80,29.99,10.0,Calm,Calm,-,N/A,,Clear,0,2013-09-21 10:54:00
6:54 AM,48.0,43.0,83,30.01,10.0,Calm,Calm,-,N/A,,Clear,0,2013-09-21 11:54:00
7:54 AM,48.9,44.1,83,30.02,10.0,WNW,3.5,-,N/A,,Clear,300,2013-09-21 12:54:00
8:54 AM,54.0,46.0,75,30.04,10.0,Calm,Calm,-,N/A,,Clear,0,2013-09-21 13:54:00
9:54 AM,59.0,45.0,60,30.04,10.0,NNW,5.8,-,N/A,,Clear,330,2013-09-21 14:54:00
10:54 AM,63.0,45.0,52,30.03,10.0,NNW,5.8,-,N/A,,Clear,330,2013-09-21 15:54:00
11:54 AM,64.9,43.0,45,30.01,10.0,NNW,6.9,-,N/A,,Clear,340,2013-09-21 16:54:00
12:54 PM,68.0,43.0,40,30.00,10.0,North,9.2,-,N/A,,Clear,350,2013-09-21 17:54:00
1:54 PM,69.1,43.0,39,29.98,10.0,Calm,Calm,-,N/A,,Clear,0,2013-09-21 18:54:00
2:54 PM,71.1,43.0,36,29.96,10.0,NW,6.9,-,N/A,,Clear,310,2013-09-21 19:54:00
3:54 PM,73.9,43.0,33,29.93,10.0,Variable,4.6,-,N/A,,Clear,0,2013-09-21 20:54:00
4:54 PM,73.0,41.0,31,29.91,10.0,West,6.9,-,N/A,,Clear,270,2013-09-21 21:54:00
5:54 PM,73.0,41.0,31,29.91,10.0,WNW,3.5,-,N/A,,Clear,300,2013-09-21 22:54:00
6:54 PM,69.1,42.1,38,29.90,10.0,South,3.5,-,N/A,,Clear,180,2013-09-21 23:54:00
7:54 PM,64.9,45.0,48,29.91,10.0,SSE,5.8,-,N/A,,Clear,160,2013-09-22 00:54:00
8:54 PM,63.0,45.0,52,29.92,10.0,SSE,5.8,-,N/A,,Clear,160,2013-09-22 01:54:00
9:54 PM,62.1,45.0,53,29.92,10.0,SSE,4.6,-,N/A,,Clear,150,2013-09-22 02:54:00
10:54 PM,57.0,46.9,69,29.94,10.0,South,6.9,-,N/A,,Clear,170,2013-09-22 03:54:00
11:54 PM,57.0,46.0,67,29.94,10.0,SSE,6.9,-,N/A,,Clear,160,2013-09-22 04:54:00